Location: Newark
(43.0000°N, 1.6781°W)
Time: 01:27:49
(UTC+00:00)

Vanguard 1 Rocket - Pass Details

Date: 24 April 2021
Orbit: 652 x 4224 km, 34.3° (Epoch: 06 May)

Event Time Altitude Azimuth Distance (km) Brightness Sun altitude
Rises 10:09:49 0° 212° (SSW) 6,122 11.7 51.1°
Reaches altitude 10° 10:16:08 10° 196° (SSW) 4,342 11.2 51.9°
Maximum altitude 10:22:28 17° 160° (SSE) 2,981 10.9 52.8°
Drops below altitude 10° 10:27:03 10° 121° (ESE) 2,965 10.8 53.3°
Sets 10:30:11 0° 100° (E) 3,561 10.9 53.7°
